Tracking 33159 objects as of 7-Feb-2026
HD Live streaming from Space Station
objects crossing your sky now

CSTP-4.4

Track CSTP-4.4 now!
10-day predictions
CSTP-4.4 is classified as:


NORAD ID: 64895
Int'l Code: 2025-155V
Perigee: 488.8 km
Apogee: 496.0 km
Inclination: 97.4 °
Period: 94.3 minutes
Semi major axis: 6863 km
RCS: Unknown
Launch date: July 25, 2025
Source: (TBD)
Launch site: VOSTOCHNY COSMODROME (VOSTO)

Uplink (MHz):
Downlink (MHz): 437.725
Beacon (MHz):
Mode: LoRa
Call sign:
Status: Active

Your satellite tracking list
Your tracking list is empty




NASA's NSSDC Master Catalog

Two Line Element Set (TLE):
1 64895U 25155V   26037.86599450  .00014133  00000-0  53804-3 0  9999
2 64895  97.4436   6.3292 0005184 282.1386  77.9272 15.26840860 60849
Source of the keplerian elements: AFSPC